period_start,C,m1,H,J0,J1,J2,J3,J4,J5,JA,JB,JC,JD,JJ,JK,JN,#
2013-09-27 00:00:56,0.02,0.43,0.00,24.06,28.52,30.85,5.96,30.58,1010.76,2043.99,3310.18,3217.99,3484.03,350.94,321.82,22.02,0000 0000 0000 0000 000000
2013-09-27 00:01:56,0.02,0.43,0.00,24.05,28.52,30.80,5.99,30.63,1010.76,2043.99,3310.17,3217.99,3484.01,350.23,321.33,22.03,0000 0000 0000 0000 000000
2013-09-27 00:02:56,0.00,0.43,0.00,24.05,28.52,30.81,5.89,30.58,1010.76,2043.98,3310.23,3217.99,3484.02,349.58,320.35,22.04,0000 0000 0000 0000 000000
2013-09-27 00:03:57,-0.02,0.43,0.00,24.05,28.52,30.80,5.76,30.63,1010.76,2043.98,3310.14,3217.99,3484.03,349.10,320.14,22.04,0000 0000 0000 0000 000000
2013-09-27 00:04:57,0.02,0.43,0.00,24.05,28.52,30.79,6.03,30.46,1010.76,2043.99,3310.15,3217.99,3484.02,351.73,322.13,22.05,0000 0000 0000 0000 000000
2013-09-27 00:05:57,0.00,0.43,0.00,24.06,28.52,30.80,5.94,30.58,1010.76,2043.98,3310.12,3217.99,3484.00,350.70,321.52,22.05,0000 0000 0000 0000 000000
2013-09-27 00:06:57,0.00,0.43,0.00,24.05,28.52,30.77,5.83,30.33,1010.76,2043.99,3310.10,3217.99,3484.00,348.80,320.30,22.06,0000 0000 0000 0000 000000
2013-09-27 00:07:58,0.01,0.43,0.00,24.06,28.52,30.78,5.85,30.63,1010.76,2043.98,3310.16,3217.99,3484.02,350.52,321.48,22.06,0000 0000 0000 0000 000000
2013-09-27 00:08:58,-0.01,0.43,0.00,24.07,28.52,30.80,5.88,30.54,1010.76,2043.99,3310.08,3217.98,3484.01,348.35,319.83,22.07,0000 0000 0000 0000 000000
2013-09-27 00:09:58,0.02,0.43,0.00,24.07,28.52,30.80,5.92,30.71,1010.76,2043.99,3310.07,3217.99,3484.02,349.22,319.93,22.08,0000 0000 0000 0000 000000
2013-09-27 00:10:58,0.00,0.43,0.00,24.07,28.52,30.83,5.77,30.79,1010.76,2043.99,3310.05,3217.99,3484.03,348.85,319.54,22.08,0000 0000 0000 0000 000000
2013-09-27 00:11:58,0.00,0.43,0.00,24.05,28.52,30.82,6.01,30.58,1010.76,2043.98,3310.03,3217.97,3484.03,350.25,321.19,22.09,0000 0000 0000 0000 000000
2013-09-27 00:12:58,-0.01,0.43,0.00,24.05,28.52,30.78,6.03,30.46,1010.76,2043.96,3310.02,3217.98,3484.02,349.97,320.93,22.09,0000 0000 0000 0000 000000
2013-09-27 00:13:59,-0.01,0.43,0.00,24.06,28.52,30.78,5.91,30.54,1010.77,2043.97,3310.06,3217.99,3484.01,349.28,320.29,22.10,0000 0000 0000 0000 000000
2013-09-27 00:14:59,0.00,0.43,0.00,24.06,28.52,30.75,5.85,30.42,1010.76,2043.98,3310.07,3217.99,3484.03,349.07,320.10,22.11,0000 0000 0000 0000 000000
2013-09-27 00:15:59,0.01,0.43,0.00,24.07,28.52,30.76,6.01,30.75,1010.77,2043.99,3310.08,3217.99,3484.02,350.87,321.75,22.11,0000 0000 0000 0000 000000
2013-09-27 00:16:59,0.00,0.43,0.00,24.07,28.52,30.75,5.93,30.50,1010.76,2043.99,3310.07,3217.99,3484.01,350.30,321.21,22.12,0000 0000 0000 0000 000000
2013-09-27 00:18:00,0.00,0.43,0.00,24.06,28.52,30.77,5.97,30.50,1010.76,2043.97,3310.06,3217.99,3484.01,350.04,320.99,22.12,0000 0000 0000 0000 000000
2013-09-27 00:19:00,-0.02,0.43,0.00,24.07,28.52,30.81,5.92,30.38,1010.77,2043.96,3310.04,3217.99,3484.00,350.78,321.30,22.13,0000 0000 0000 0000 000000
2013-09-27 00:20:00,0.01,0.43,0.00,24.08,28.52,30.78,5.97,30.71,1010.77,2043.98,3310.02,3217.99,3484.01,350.17,321.01,22.13,0000 0000 0000 0000 000000
2013-09-27 00:21:00,0.01,0.43,0.00,24.07,28.52,30.77,6.00,30.63,1010.77,2043.99,3310.03,3217.97,3484.03,351.41,322.04,22.14,0000 0000 0000 0000 000000
2013-09-27 00:22:01,0.00,0.43,0.00,24.07,28.52,30.77,5.97,30.42,1010.76,2043.98,3310.05,3217.98,3484.01,350.74,321.77,22.15,0000 0000 0000 0000 000000
2013-09-27 00:23:01,-0.01,0.43,0.00,24.05,28.52,30.79,6.02,30.58,1010.76,2043.98,3310.14,3217.99,3484.00,350.31,321.24,22.15,0000 0000 0000 0000 000000
2013-09-27 00:24:01,-0.01,0.43,0.00,24.07,28.52,30.77,6.06,30.58,1010.77,2043.99,3310.44,3217.99,3484.00,349.83,320.62,22.16,0000 0000 0000 0000 000000
2013-09-27 00:25:01,-0.03,0.43,0.00,24.06,28.52,30.77,5.85,30.79,1010.76,2043.99,3310.64,3217.99,3484.02,349.09,319.96,22.16,0000 0000 0000 0000 000000
2013-09-27 00:26:01,-0.02,0.43,0.00,24.06,28.52,30.78,6.13,30.71,1010.76,2043.99,3310.81,3217.99,3484.01,350.96,321.83,22.17,0000 0000 0000 0000 000000
2013-09-27 00:27:01,-0.01,0.43,0.00,24.05,28.52,30.75,5.91,30.50,1010.76,2043.98,3310.81,3217.99,3484.02,349.37,320.40,22.18,0000 0000 0000 0000 000000
2013-09-27 00:28:02,-0.01,0.43,0.00,24.07,28.52,30.76,6.01,30.63,1010.77,2043.97,3310.47,3217.99,3484.00,350.95,321.89,22.18,0000 0000 0000 0000 000000
2013-09-27 00:29:02,0.06,0.43,0.00,24.08,28.52,30.78,5.74,30.67,1010.76,2043.98,3310.30,3217.99,3484.00,347.77,318.89,22.19,0000 0000 0000 0000 000000
2013-09-27 00:30:02,0.02,0.43,0.00,24.09,28.52,30.80,5.94,30.67,1010.77,2043.97,3310.23,3217.99,3484.01,350.13,321.04,22.19,0000 0000 0000 0000 000000
2013-09-27 00:31:02,0.00,0.43,0.00,24.09,28.52,30.82,5.98,30.83,1010.77,2043.96,3310.11,3217.99,3484.00,349.78,320.56,22.20,0000 0000 0000 0000 000000
2013-09-27 00:32:03,0.00,0.43,0.00,24.09,28.52,30.82,6.02,30.54,1010.77,2043.93,3310.05,3217.99,3484.00,350.21,321.00,22.20,0000 0000 0000 0000 000000
2013-09-27 00:33:03,-0.01,0.43,0.00,24.08,28.52,30.77,5.99,30.63,1010.78,2043.94,3310.03,3217.98,3484.00,350.93,322.14,22.21,0000 0000 0000 0000 000000
2013-09-27 00:34:03,0.02,0.43,0.00,24.08,28.52,30.75,5.88,30.54,1010.77,2043.95,3310.04,3217.98,3484.00,350.45,321.34,22.22,0000 0000 0000 0000 000000
2013-09-27 00:35:03,0.00,0.43,0.00,24.07,28.52,30.77,5.93,30.67,1010.77,2043.97,3310.03,3217.97,3484.00,349.92,320.87,22.22,0000 0000 0000 0000 000000
2013-09-27 00:36:03,0.02,0.43,0.00,24.08,28.52,30.76,5.98,30.42,1010.77,2043.95,3310.05,3217.98,3484.00,351.00,321.99,22.23,0000 0000 0000 0000 000000
2013-09-27 00:37:04,-0.03,0.43,0.00,24.08,28.52,30.77,5.93,30.92,1010.77,2043.95,3310.04,3217.98,3484.00,349.74,320.69,22.23,0000 0000 0000 0000 000000
2013-09-27 00:38:04,0.00,0.43,0.00,24.05,28.52,30.77,6.00,30.75,1010.78,2043.97,3310.02,3217.95,3484.00,349.96,320.94,22.24,0000 0000 0000 0000 000000
2013-09-27 00:39:04,0.02,0.43,0.00,24.02,28.52,30.72,5.85,30.63,1010.79,2043.97,3310.01,3217.96,3484.00,349.93,320.94,22.25,0000 0000 0000 0000 000000
2013-09-27 00:40:04,0.00,0.43,0.00,24.00,28.52,30.73,5.98,30.46,1010.77,2043.98,3310.01,3217.97,3484.00,350.81,321.70,22.25,0000 0000 0000 0000 000000
2013-09-27 00:41:05,0.00,0.43,0.00,23.99,28.52,30.78,5.93,30.58,1010.77,2043.98,3310.02,3217.97,3484.00,349.85,320.89,22.26,0000 0000 0000 0000 000000
2013-09-27 00:42:05,0.00,0.43,0.00,23.99,28.52,30.81,5.95,30.88,1010.78,2043.97,3310.00,3217.97,3484.00,350.42,321.41,22.26,0000 0000 0000 0000 000000
2013-09-27 00:43:05,-0.01,0.43,0.00,23.98,28.52,30.77,6.02,30.83,1010.77,2043.95,3310.00,3217.96,3484.00,350.54,321.18,22.27,0000 0000 0000 0000 000000
2013-09-27 00:44:05,-0.03,0.43,0.00,23.97,28.52,30.74,5.97,31.17,1010.77,2043.94,3310.00,3217.94,3484.00,350.76,321.75,22.27,0000 0000 0000 0000 000000
2013-09-27 00:45:06,-0.01,0.43,0.00,23.97,28.52,30.75,5.91,30.71,1010.76,2043.94,3310.01,3217.94,3484.00,349.37,320.64,22.28,0000 0000 0000 0000 000000
2013-09-27 00:46:06,0.02,0.43,0.00,23.96,28.52,30.74,6.01,30.79,1010.77,2043.97,3310.00,3217.97,3484.00,349.89,320.63,22.29,0000 0000 0000 0000 000000
2013-09-27 00:47:06,0.01,0.43,0.00,23.96,28.52,30.75,5.90,30.83,1010.77,2043.97,3310.00,3217.98,3484.00,349.25,320.37,22.29,0000 0000 0000 0000 000000
2013-09-27 00:48:06,-0.00,0.43,0.00,23.97,28.52,30.72,5.96,30.71,1010.76,2043.94,3310.00,3217.98,3484.00,349.78,320.86,22.30,0000 0000 0000 0000 000000
2013-09-27 00:49:06,-0.02,0.43,0.00,23.97,28.52,30.76,6.03,30.79,1010.77,2043.94,3310.00,3217.95,3484.00,349.79,320.95,22.30,0000 0000 0000 0000 000000
2013-09-27 00:50:07,0.00,0.43,0.00,23.97,28.52,30.80,5.83,30.71,1010.76,2043.96,3310.01,3217.96,3484.00,348.83,319.89,22.31,0000 0000 0000 0000 000000
2013-09-27 00:51:07,0.02,0.43,0.00,23.96,28.52,30.81,6.08,30.75,1010.77,2043.97,3310.00,3217.97,3484.00,351.11,321.90,22.32,0000 0000 0000 0000 000000
2013-09-27 00:52:07,0.00,0.43,0.00,23.96,28.52,30.80,5.88,30.33,1010.77,2043.98,3310.02,3217.97,3484.00,349.69,321.01,22.32,0000 0000 0000 0000 000000
2013-09-27 00:53:07,0.00,0.43,0.00,23.96,28.52,30.77,5.82,30.75,1010.79,2043.99,3310.02,3217.98,3484.00,349.14,320.28,22.33,0000 0000 0000 0000 000000
2013-09-27 00:54:07,0.00,0.43,0.00,23.95,28.52,30.76,6.00,30.63,1010.77,2043.99,3310.00,3217.99,3484.00,350.00,321.35,22.33,0000 0000 0000 0000 000000
2013-09-27 00:55:08,0.00,0.43,0.00,23.97,28.52,30.77,5.97,30.50,1010.77,2043.98,3310.00,3217.98,3484.00,350.33,321.56,22.34,0000 0000 0000 0000 000000
2013-09-27 00:56:08,-0.00,0.43,0.00,23.96,28.52,30.79,5.98,30.75,1010.81,2043.96,3310.00,3217.97,3484.00,350.73,322.07,22.35,0000 0000 0000 0000 000000
2013-09-27 00:57:08,-0.01,0.43,0.00,23.97,28.52,30.78,5.82,30.67,1010.81,2043.95,3310.00,3217.96,3484.00,348.85,319.90,22.35,0000 0000 0000 0000 000000
2013-09-27 00:58:08,-0.01,0.43,0.00,23.97,28.52,30.80,6.02,30.75,1010.85,2043.97,3310.00,3217.96,3484.00,350.12,321.48,22.36,0000 0000 0000 0000 000000
2013-09-27 00:59:08,0.02,0.43,0.00,23.97,28.52,30.77,6.00,30.75,1010.86,2043.98,3310.00,3217.90,3484.00,351.22,322.20,22.36,0000 0000 0000 0000 000000
2013-09-27 01:00:08,0.02,0.43,0.00,23.98,28.52,30.77,6.02,30.71,1010.80,2043.97,3310.00,3217.90,3484.00,350.86,321.85,22.37,0000 0000 0000 0000 000000
2013-09-27 01:01:08,-0.00,0.43,0.00,23.99,28.52,30.78,5.89,30.67,1010.80,2043.97,3310.00,3217.91,3484.00,349.97,321.44,22.37,0000 0000 0000 0000 000000
2013-09-27 01:02:09,-0.01,0.43,0.00,24.00,28.52,30.78,5.91,30.63,1010.85,2043.95,3309.99,3217.82,3484.00,349.58,320.66,22.38,0000 0000 0000 0000 000000
2013-09-27 01:03:09,-0.00,0.43,0.00,23.99,28.52,30.79,5.97,30.75,1010.87,2043.93,3309.99,3217.82,3484.00,349.41,320.52,22.39,0000 0000 0000 0000 000000
2013-09-27 01:04:09,-0.01,0.43,0.00,23.99,28.52,30.84,5.90,30.67,1010.93,2043.92,3309.99,3217.76,3483.99,350.07,321.55,22.39,0000 0000 0000 0000 000000
2013-09-27 01:05:10,0.01,0.43,0.00,23.99,28.52,30.81,6.06,30.67,1010.91,2043.91,3309.99,3217.75,3483.99,350.56,321.59,22.40,0000 0000 0000 0000 000000
2013-09-27 01:06:10,-0.01,0.43,0.00,23.99,28.52,30.80,5.88,30.71,1010.89,2043.94,3309.99,3217.84,3483.99,349.64,320.73,22.40,0000 0000 0000 0000 000000
2013-09-27 01:07:10,0.00,0.43,0.00,23.99,28.52,30.79,5.88,30.58,1010.88,2043.94,3309.99,3217.71,3483.99,349.95,320.92,22.41,0000 0000 0000 0000 000000
2013-09-27 01:08:10,0.02,0.43,0.00,24.00,28.52,30.80,5.92,30.63,1010.95,2043.94,3309.98,3217.70,3483.99,349.64,320.74,22.42,0000 0000 0000 0000 000000
2013-09-27 01:09:10,0.01,0.43,0.00,24.01,28.52,30.79,5.85,30.71,1010.94,2043.90,3309.99,3217.67,3483.98,350.41,321.44,22.42,0000 0000 0000 0000 000000
2013-09-27 01:10:11,-0.02,0.43,0.00,23.98,28.53,30.78,5.77,30.79,1010.91,2043.86,3309.99,3217.59,3483.95,348.94,319.94,22.43,0000 0000 0000 0000 000000
2013-09-27 01:11:11,0.00,0.43,0.00,23.99,28.53,30.77,6.04,30.58,1010.90,2043.82,3309.99,3217.48,3483.93,350.55,321.30,22.43,0000 0000 0000 0000 000000
2013-09-27 01:12:11,0.00,0.43,0.00,23.98,28.53,30.79,6.14,30.71,1010.91,2043.89,3309.98,3217.64,3483.96,350.91,321.96,22.44,0000 0000 0000 0000 000000
2013-09-27 01:13:11,0.00,0.43,0.00,23.98,28.53,30.80,6.02,30.75,1010.93,2043.94,3309.99,3217.72,3483.98,350.24,321.49,22.44,0000 0000 0000 0000 000000
2013-09-27 01:14:11,0.02,0.43,0.00,23.99,28.53,30.80,5.97,30.63,1011.01,2043.94,3309.99,3217.68,3483.98,348.95,320.09,22.45,0000 0000 0000 0000 000000
2013-09-27 01:15:12,0.01,0.43,0.00,23.99,28.53,30.79,6.06,30.71,1011.07,2043.95,3309.98,3217.60,3483.96,350.29,321.39,22.46,0000 0000 0000 0000 000000
2013-09-27 01:16:12,0.02,0.43,0.00,23.99,28.54,30.79,6.03,30.79,1010.98,2043.94,3309.99,3217.57,3483.97,350.57,321.57,22.46,0000 0000 0000 0000 000000
2013-09-27 01:17:12,-0.01,0.43,0.00,24.00,28.54,30.78,5.80,30.71,1011.07,2043.88,3309.99,3217.56,3483.94,348.95,320.76,22.47,0000 0000 0000 0000 000000
2013-09-27 01:18:13,-0.03,0.43,0.00,24.00,28.55,30.79,5.78,30.75,1011.04,2043.79,3309.98,3217.45,3483.90,348.59,320.09,22.47,0000 0000 0000 0000 000000
2013-09-27 01:19:13,-0.01,0.43,0.00,24.00,28.55,30.79,6.00,30.71,1011.09,2043.74,3309.98,3217.31,3483.91,349.96,321.08,22.48,0000 0000 0000 0000 000000
2013-09-27 01:20:13,-0.04,0.43,0.00,24.00,28.55,30.78,6.07,30.63,1011.11,2043.81,3309.99,3217.44,3483.94,350.47,320.99,22.49,0000 0000 0000 0000 000000
2013-09-27 01:21:13,0.02,0.43,0.00,24.00,28.55,30.78,6.00,30.75,1011.08,2043.81,3309.98,3217.44,3483.95,349.81,320.78,22.49,0000 0000 0000 0000 000000
2013-09-27 01:22:13,0.00,0.43,0.00,24.01,28.55,30.79,5.82,30.63,1011.09,2043.76,3309.98,3217.41,3483.91,349.78,321.05,22.50,0000 0000 0000 0000 000000
2013-09-27 01:23:13,-0.01,0.43,0.00,24.03,28.55,30.78,5.92,30.54,1011.11,2043.66,3309.97,3217.29,3483.89,349.85,320.96,22.50,0000 0000 0000 0000 000000
2013-09-27 01:24:14,-0.06,0.43,0.00,24.03,28.55,30.79,5.87,30.63,1011.13,2043.63,3309.97,3217.21,3483.92,349.71,320.84,22.51,0000 0000 0000 0000 000000
2013-09-27 01:25:14,0.03,0.43,0.00,24.03,28.55,30.80,5.96,30.75,1011.16,2043.74,3309.99,3217.16,3483.85,349.75,320.88,22.51,0000 0000 0000 0000 000000
2013-09-27 01:26:14,0.08,0.43,0.00,24.02,28.55,30.81,5.94,30.79,1011.17,2043.72,3309.98,3217.20,3483.83,349.91,321.04,22.52,0000 0000 0000 0000 000000
2013-09-27 01:27:14,-0.04,0.43,0.00,24.02,28.55,30.79,6.07,30.67,1011.20,2043.67,3309.99,3217.17,3483.83,349.99,321.12,22.53,0000 0000 0000 0000 000000
2013-09-27 01:28:15,-0.03,0.43,0.00,24.03,28.55,30.80,5.78,30.79,1011.18,2043.65,3309.98,3217.19,3483.82,349.05,320.63,22.53,0000 0000 0000 0000 000000
2013-09-27 01:29:15,0.01,0.43,0.00,24.02,28.55,30.80,5.98,30.75,1011.21,2043.73,3309.98,3217.29,3483.88,350.85,321.50,22.54,0000 0000 0000 0000 000000
2013-09-27 01:30:15,0.03,0.43,0.00,24.02,28.55,30.80,5.95,30.75,1011.16,2043.79,3309.97,3217.24,3483.83,350.33,321.15,22.54,0000 0000 0000 0000 000000
2013-09-27 01:31:16,0.03,0.43,0.00,24.02,28.55,30.79,5.97,30.79,1011.21,2043.66,3309.95,3217.19,3483.66,349.81,321.54,22.55,0000 0000 0000 0000 000000
2013-09-27 01:32:16,-0.07,0.43,0.00,24.02,28.55,30.79,5.99,30.63,1011.20,2043.58,3309.97,3217.13,3483.64,350.37,321.33,22.56,0000 0000 0000 0000 000000
2013-09-27 01:33:16,-0.04,0.43,0.00,24.04,28.55,30.80,6.08,30.63,1011.21,2043.44,3309.96,3217.08,3483.36,350.00,321.11,22.56,0000 0000 0000 0000 000000
2013-09-27 01:34:16,-0.04,0.43,0.00,24.10,28.55,30.85,6.04,30.88,1011.22,2043.41,3309.94,3217.05,3483.30,350.15,321.19,22.57,0000 0000 0000 0000 000000
2013-09-27 01:35:17,-0.04,0.43,0.00,24.11,28.55,30.83,5.84,30.75,1011.24,2043.38,3309.93,3217.04,3483.22,348.65,320.02,22.57,0000 0000 0000 0000 000000
2013-09-27 01:36:17,0.01,0.43,0.00,24.13,28.56,30.83,5.85,30.54,1011.24,2043.30,3309.92,3217.05,3483.20,350.03,321.41,22.58,0000 0000 0000 0000 000000
2013-09-27 01:37:17,-0.04,0.43,0.00,24.14,28.56,30.82,5.76,30.67,1011.24,2043.25,3309.95,3217.04,3483.14,348.76,319.91,22.59,0000 0000 0000 0000 000000
2013-09-27 01:38:17,-0.03,0.43,0.00,24.15,28.57,30.83,6.07,30.46,1011.24,2043.15,3309.95,3217.04,3483.09,351.03,321.77,22.59,0000 0000 0000 0000 000000
2013-09-27 01:39:18,-0.07,0.43,0.00,24.14,28.57,30.80,5.72,30.63,1011.24,2043.10,3309.87,3217.04,3483.11,349.79,320.63,22.60,0000 0000 0000 0000 000000
2013-09-27 01:40:18,-0.01,0.43,0.00,24.12,28.57,30.81,5.88,30.75,1011.24,2043.08,3309.63,3217.02,3483.07,348.09,319.55,22.60,0000 0000 0000 0000 000000
2013-09-27 01:41:18,0.04,0.43,0.00,24.10,28.57,30.80,6.14,30.83,1011.24,2043.11,3309.58,3217.01,3483.03,350.74,321.53,22.61,0000 0000 0000 0000 000000
2013-09-27 01:42:18,0.02,0.43,0.00,24.08,28.57,30.78,5.91,30.92,1011.24,2043.09,3309.46,3217.01,3483.01,349.93,320.83,22.61,0000 0000 0000 0000 000000
2013-09-27 01:43:19,0.00,0.43,0.00,24.07,28.57,30.80,5.85,31.08,1011.24,2043.07,3309.42,3217.00,3483.03,349.81,320.91,22.62,0000 0000 0000 0000 000000
2013-09-27 01:44:19,0.01,0.43,0.00,24.07,28.57,30.80,6.03,30.88,1011.24,2043.12,3309.27,3217.00,3483.03,350.63,321.67,22.63,0000 0000 0000 0000 000000
2013-09-27 01:45:19,0.04,0.43,0.00,24.07,28.57,30.81,5.99,30.83,1011.24,2043.13,3309.34,3217.01,3483.08,349.47,320.62,22.63,0000 0000 0000 0000 000000
2013-09-27 01:46:19,-0.01,0.43,0.00,24.05,28.57,30.82,5.89,30.58,1011.24,2043.14,3309.64,3217.01,3483.04,349.24,320.41,22.64,0000 0000 0000 0000 000000
2013-09-27 01:47:20,-0.01,0.43,0.00,24.05,28.57,30.82,6.03,30.63,1011.24,2043.20,3309.76,3217.03,3483.03,350.50,321.58,22.64,0000 0000 0000 0000 000000
2013-09-27 01:48:20,0.02,0.43,0.00,24.05,28.57,30.84,6.08,30.92,1011.24,2043.19,3309.73,3217.01,3483.02,349.82,320.91,22.65,0000 0000 0000 0000 000000
2013-09-27 01:49:20,-0.02,0.43,0.00,24.05,28.57,30.83,5.99,30.54,1011.24,2043.12,3309.70,3217.00,3483.02,350.95,321.95,22.66,0000 0000 0000 0000 000000
2013-09-27 01:50:20,-0.02,0.43,0.00,24.05,28.57,30.83,5.92,30.79,1011.24,2043.05,3309.48,3217.01,3483.03,349.61,320.77,22.66,0000 0000 0000 0000 000000
2013-09-27 01:51:21,-0.02,0.43,0.00,24.05,28.57,30.82,5.92,30.75,1011.24,2043.08,3309.32,3217.00,3483.03,349.84,320.97,22.67,0000 0000 0000 0000 000000
2013-09-27 01:52:21,0.02,0.43,0.00,24.07,28.57,30.84,5.91,30.71,1011.24,2043.08,3309.51,3217.01,3483.05,349.93,321.03,22.67,0000 0000 0000 0000 000000
2013-09-27 01:53:21,-0.01,0.43,0.00,24.07,28.57,30.84,5.91,30.75,1011.24,2043.09,3309.61,3217.01,3483.04,349.88,320.97,22.68,0000 0000 0000 0000 000000
2013-09-27 01:54:21,0.00,0.43,0.00,24.06,28.57,30.84,5.93,30.67,1011.24,2043.09,3309.52,3217.02,3483.04,350.57,321.76,22.68,0000 0000 0000 0000 000000
2013-09-27 01:55:21,0.03,0.43,0.00,24.05,28.57,30.83,6.02,30.63,1011.24,2043.18,3309.62,3217.02,3483.04,350.33,321.41,22.69,0000 0000 0000 0000 000000
2013-09-27 01:56:22,0.05,0.43,0.00,24.07,28.58,30.79,5.85,30.67,1011.24,2043.14,3309.64,3217.02,3483.04,349.04,320.54,22.70,0000 0000 0000 0000 000000
2013-09-27 01:57:22,-0.02,0.43,0.00,24.09,28.59,30.82,5.77,30.42,1011.25,2043.13,3309.51,3217.01,3483.03,348.58,319.78,22.70,0000 0000 0000 0000 000000
2013-09-27 01:58:22,0.00,0.43,0.00,24.08,28.59,30.85,5.87,30.58,1011.25,2043.14,3309.45,3217.03,3483.02,349.59,320.70,22.71,0000 0000 0000 0000 000000
2013-09-27 01:59:22,0.02,0.43,0.00,24.07,28.59,30.84,6.01,30.71,1011.25,2043.09,3309.39,3217.01,3483.02,350.59,321.97,22.71,0000 0000 0000 0000 000000
2013-09-27 02:00:22,-0.03,0.43,0.00,24.08,28.60,30.88,6.04,30.75,1011.26,2043.07,3309.38,3217.00,3483.01,349.27,320.72,22.72,0000 0000 0000 0000 000000
2013-09-27 02:01:23,0.00,0.43,0.00,24.08,28.60,30.84,5.89,30.79,1011.26,2043.05,3309.33,3217.00,3483.00,350.51,321.72,22.73,0000 0000 0000 0000 000000
2013-09-27 02:02:23,0.00,0.43,0.00,24.08,28.60,30.84,6.08,30.67,1011.27,2043.04,3309.16,3217.00,3483.00,349.73,320.91,22.73,0000 0000 0000 0000 000000
2013-09-27 02:03:23,0.01,0.43,0.00,24.09,28.60,30.84,5.96,30.58,1011.26,2043.06,3309.07,3217.00,3483.00,349.95,320.71,22.74,0000 0000 0000 0000 000000
2013-09-27 02:04:23,0.03,0.43,0.00,24.08,28.60,30.84,6.13,30.79,1011.27,2043.04,3309.03,3217.00,3483.00,350.90,321.41,22.74,0000 0000 0000 0000 000000
2013-09-27 02:05:23,0.00,0.43,0.00,24.07,28.60,30.84,5.92,30.67,1011.26,2043.06,3309.01,3217.00,3483.00,349.42,320.73,22.75,0000 0000 0000 0000 000000
2013-09-27 02:06:23,0.01,0.43,0.00,24.12,28.60,30.86,5.96,30.63,1011.25,2043.10,3309.02,3217.00,3483.00,350.52,321.58,22.76,0000 0000 0000 0000 000000
2013-09-27 02:07:24,0.01,0.43,0.00,24.15,28.60,30.85,5.87,30.67,1011.26,2043.08,3309.01,3217.00,3483.00,349.48,320.54,22.76,0000 0000 0000 0000 000000
2013-09-27 02:08:24,-0.00,0.43,0.00,24.16,28.60,30.85,5.92,30.50,1011.25,2043.05,3309.01,3217.00,3483.00,350.16,321.14,22.77,0000 0000 0000 0000 000000
2013-09-27 02:09:24,-0.02,0.43,0.00,24.17,28.60,30.85,5.95,30.71,1011.26,2043.04,3309.01,3217.00,3483.00,350.25,321.23,22.77,0000 0000 0000 0000 000000
2013-09-27 02:10:24,-0.01,0.43,0.00,24.18,28.60,30.85,6.05,30.67,1011.26,2043.05,3309.00,3217.00,3483.00,349.64,320.66,22.78,0000 0000 0000 0000 000000
2013-09-27 02:11:24,0.01,0.43,0.00,24.18,28.60,30.85,5.92,30.63,1011.26,2043.05,3309.00,3217.00,3483.00,350.44,321.24,22.78,0000 0000 0000 0000 000000
2013-09-27 02:12:25,-0.01,0.43,0.00,24.17,28.60,30.86,6.02,30.54,1011.25,2043.02,3309.00,3216.99,3483.00,351.28,322.09,22.79,0000 0000 0000 0000 000000
2013-09-27 02:13:25,-0.01,0.43,0.00,24.18,28.60,30.86,5.96,30.58,1011.25,2043.02,3309.00,3216.96,3483.00,349.74,320.86,22.80,0000 0000 0000 0000 000000
2013-09-27 02:14:25,0.00,0.43,0.00,24.18,28.60,30.87,5.97,30.67,1011.26,2043.01,3309.00,3216.97,3483.00,350.42,321.27,22.80,0000 0000 0000 0000 000000
2013-09-27 02:15:26,0.01,0.43,0.00,24.19,28.60,30.86,5.84,30.67,1011.27,2043.01,3309.00,3216.99,3483.00,349.77,320.76,22.81,0000 0000 0000 0000 000000
2013-09-27 02:16:26,0.00,0.43,0.00,24.19,28.61,30.86,5.99,30.50,1011.25,2043.01,3309.00,3216.99,3483.00,349.84,320.81,22.81,0000 0000 0000 0000 000000
2013-09-27 02:17:26,0.00,0.43,0.00,24.19,28.61,30.82,5.83,30.79,1011.27,2043.02,3309.00,3216.98,3483.00,349.69,320.97,22.82,0000 0000 0000 0000 000000
2013-09-27 02:18:26,0.01,0.43,0.00,24.20,28.61,30.84,6.00,30.58,1011.26,2043.02,3309.00,3216.97,3483.00,351.08,321.95,22.83,0000 0000 0000 0000 000000
2013-09-27 02:19:26,0.01,0.43,0.00,24.21,28.62,30.87,5.95,30.75,1011.26,2043.02,3308.93,3216.96,3482.96,350.26,321.60,22.83,0000 0000 0000 0000 000000
2013-09-27 02:20:27,0.01,0.43,0.00,24.21,28.62,30.85,5.90,30.58,1011.25,2043.04,3308.95,3216.96,3482.97,350.20,321.24,22.84,0000 0000 0000 0000 000000
2013-09-27 02:21:27,0.03,0.43,0.00,24.22,28.62,30.87,6.02,30.54,1011.27,2043.07,3308.97,3216.97,3482.97,350.65,321.54,22.84,0000 0000 0000 0000 000000
2013-09-27 02:22:27,0.01,0.43,0.00,24.20,28.62,30.89,6.02,30.63,1011.27,2043.06,3308.96,3216.97,3482.97,351.04,321.91,22.85,0000 0000 0000 0000 000000
2013-09-27 02:23:28,-0.01,0.43,0.00,24.17,28.62,30.85,5.89,30.67,1011.28,2043.04,3308.95,3216.96,3482.97,349.97,321.08,22.85,0000 0000 0000 0000 000000
2013-09-27 02:24:28,0.00,0.43,0.00,24.15,28.62,30.84,5.92,30.63,1011.33,2043.03,3308.90,3216.90,3482.92,350.49,321.34,22.86,0000 0000 0000 0000 000000
2013-09-27 02:25:28,0.02,0.43,0.00,24.15,28.62,30.86,6.01,30.58,1011.28,2043.04,3308.83,3216.88,3482.91,349.86,321.07,22.87,0000 0000 0000 0000 000000
2013-09-27 02:26:28,0.01,0.43,0.00,24.14,28.62,30.88,5.97,30.54,1011.29,2043.05,3308.81,3216.86,3482.91,349.05,320.78,22.87,0000 0000 0000 0000 000000
2013-09-27 02:27:28,0.01,0.43,0.00,24.12,28.62,30.88,5.88,30.67,1011.30,2043.03,3308.81,3216.83,3482.88,348.78,319.94,22.88,0000 0000 0000 0000 000000
2013-09-27 02:28:29,-0.00,0.43,0.00,24.13,28.62,30.89,5.99,30.46,1011.31,2043.04,3308.90,3216.83,3482.89,351.07,322.04,22.88,0000 0000 0000 0000 000000
2013-09-27 02:29:29,-0.01,0.43,0.00,24.12,28.62,30.88,5.94,30.67,1011.30,2043.04,3308.93,3216.88,3482.93,350.05,321.10,22.89,0000 0000 0000 0000 000000
2013-09-27 02:30:29,-0.01,0.43,0.00,24.12,28.62,30.89,5.83,30.79,1011.29,2043.03,3308.87,3216.89,3482.94,349.57,320.67,22.90,0000 0000 0000 0000 000000
2013-09-27 02:31:29,0.03,0.43,0.00,24.09,28.62,30.88,6.02,30.67,1011.30,2043.02,3308.62,3216.75,3482.87,350.78,321.80,22.90,0000 0000 0000 0000 000000
2013-09-27 02:32:30,0.04,0.43,0.00,24.10,28.62,30.87,6.02,30.75,1011.28,2043.05,3308.68,3216.84,3482.91,349.86,320.95,22.91,0000 0000 0000 0000 000000
2013-09-27 02:33:30,-0.02,0.43,0.00,24.09,28.62,30.89,6.11,30.58,1011.26,2043.04,3308.86,3216.93,3482.92,351.08,321.97,22.91,0000 0000 0000 0000 000000
2013-09-27 02:34:30,-0.03,0.43,0.00,24.09,28.62,30.88,5.95,30.71,1011.27,2043.02,3308.86,3216.93,3482.94,350.24,321.22,22.92,0000 0000 0000 0000 000000
2013-09-27 02:35:30,-0.01,0.43,0.00,24.09,28.62,30.88,5.78,30.75,1011.30,2043.01,3308.63,3216.84,3482.88,349.47,320.81,22.92,0000 0000 0000 0000 000000
2013-09-27 02:36:31,0.04,0.43,0.00,24.11,28.62,30.86,5.97,30.75,1011.31,2043.02,3308.41,3216.78,3482.84,349.89,321.26,22.93,0000 0000 0000 0000 000000